{"data":{"norad_id":65878,"epoch":"2026-09-20T22:35:27.706560Z","epoch_age_seconds":67980,"freshness":"FRESH","line1":"1 65878U 25223AA  26263.94129290  .00014388  00000+0  43618-3 0  9991","line2":"2 65878  53.1581 103.4128 0001107  95.7634 264.3495 15.34397617 54155","mean_motion":15.34397617,"eccentricity":0.0001107,"inclination_deg":53.1581,"raan_deg":103.4128,"arg_perigee_deg":95.7634,"mean_anomaly_deg":264.3495,"bstar":0.00043618,"rev_number":5415,"period_min":93.847903831827,"perigee_km":461.95304119581,"apogee_km":463.46760479312,"semimajor_km":6840.8473229945,"source":"CELESTRAK","updated_at":"2026-09-21T09:00:35.753707Z"}}